This is the latest recevied weather packets stored in our database for station/object OK1VCF-8. If no packets are shown the sender has not sent any weather packets the latest 10 day(s).
| Time | Temp. | Humidity | Pressure | Rain* | Wind** | Luminosity | Snow |
|---|---|---|---|---|---|---|---|
| 1777596076 | 5.56° C | 69% | 1030.2 hPa | - | - | - | - |
| 1777595593 | 5.56° C | 68% | 1030.2 hPa | - | - | - | - |
| 1777595112 | 5.56° C | 68% | 1030.2 hPa | - | - | - | - |
| 1777594634 | 5.56° C | 67% | 1030.2 hPa | - | - | - | - |
| 1777594152 | 5.56° C | 65% | 1030.4 hPa | - | - | - | - |
| 1777593670 | 6.11° C | 66% | 1030.4 hPa | - | - | - | - |
| 1777593192 | 6.11° C | 66% | 1030.3 hPa | - | - | - | - |
| 1777592715 | 5.56° C | 66% | 1030.3 hPa | - | - | - | - |
| 1777592249 | 6.11° C | 65% | 1030.4 hPa | - | - | - | - |
| 1777591793 | 6.67° C | 64% | 1030.4 hPa | - | - | - | - |
| 1777591344 | 6.11° C | 66% | 1030.4 hPa | - | - | - | - |
| 1777590739 | 5.56° C | 64% | 1030.4 hPa | - | - | - | - |
| 1777590301 | 6.67° C | 62% | 1030.4 hPa | - | - | - | - |
| 1777589863 | 6.67° C | 62% | 1030.4 hPa | - | - | - | - |
| 1777589426 | 6.67° C | 62% | 1030.4 hPa | - | - | - | - |
| 1777588989 | 6.67° C | 61% | 1030.4 hPa | - | - | - | - |
| 1777588551 | 6.67° C | 62% | 1030.4 hPa | - | - | - | - |
| 1777588113 | 6.67° C | 62% | 1030.4 hPa | - | - | - | - |
| 1777587675 | 7.22° C | 61% | 1030.4 hPa | - | - | - | - |
| 1777587236 | 7.78° C | 61% | 1030.6 hPa | - | - | - | - |
| 1777586797 | 7.22° C | 62% | 1030.4 hPa | - | - | - | - |
| 1777586360 | 7.22° C | 62% | 1030.4 hPa | - | - | - | - |
| 1777585922 | 6.67° C | 62% | 1030.5 hPa | - | - | - | - |
| 1777585483 | 6.67° C | 63% | 1031.2 hPa | - | - | - | - |
| 1777585045 | 7.78° C | 60% | 1030.4 hPa | - | - | - | - |
* Rain since midnight (hover to see other rain measurements)
** Current wind speed in m/s (hover to see current wind gust speed)